Home > Weather > Sault Ste. Marie > Past weeks

Flag for Canada Past Weather in Sault Ste. Marie, Ontario, Canada — Yesterday and Last 2 Weeks

Now
75 °F

Scattered clouds.


Feels Like: 77 °F
Forecast: 63 / 82 °F
Wind: 14 mph from Southwest

Location: Sault Ste Marie

Current Time: Jun 26, 2016 at 3:06:03 PM

Latest Report: Jun 26, 2016 at 2:00 PM


Visibility: 15 mi

Pressure: 29.84 "Hg

Humidity: 69%

Dew Point: 64 °F

Location of Sault Ste. MarieLocation

Past Weather in Sault Ste. Marie — Graph

°F

Sault Ste. Marie Temperature Yesterday

Maximum temperature yesterday: 82 °F (at 2:00 PM)
Minimum temperature yesterday: 48 °F (at 4:00 AM)
Average temperature yesterday: 65 °F

High & Low Weather Summary for the Past Weeks

 TemperatureHumidityPressure
High86 °F (Jun 18, 3:00 PM)100% (Jun 18, 4:00 AM)30.21 "Hg (Jun 18, 4:00 AM)
Low41 °F (Jun 12, 3:00 AM)32% (Jun 24, 4:00 PM)29.77 "Hg (Jun 11, 1:00 PM)
Average61 °F68%30.00 "Hg
* Reported Jun 11 1:00 PM — Jun 26 1:00 PM, Sault Ste. Marie, Weather by CustomWeather, © 2016

Note: Actual official high and low records may vary slightly from our data, if they occured in-between our weather recording intervals... More about our weather records

Advertising

Sault Ste. Marie Weather History for the Previous 24 Hours

Scroll right to see more
 ConditionsComfort  
Time TempWeatherWind HumidityBarometerVisibility
1:00 PM
Sun, Jun 26
72 °FPartly sunny.14 mph78%29.85 "Hg15 mi
12:00 PM73 °FMostly cloudy.8 mph83%29.85 "Hg15 mi
11:00 AM70 °FMostly cloudy.8 mph88%29.85 "Hg15 mi
10:00 AM72 °FOvercast.9 mph83%29.86 "Hg15 mi
9:47 AM70 °FMostly cloudy.7 mph88%29.86 "Hg12 mi
9:00 AM66 °FSprinkles. More clouds than sun.No wind94%29.84 "Hg12 mi
8:00 AM66 °FSprinkles. Broken clouds.5 mph94%29.85 "Hg10 mi
7:00 AM64 °FSprinkles. Cloudy.No wind94%29.85 "Hg10 mi
6:00 AM64 °FSprinkles. Mostly cloudy.5 mph88%29.83 "Hg10 mi
5:46 AM66 °FSprinkles. Mostly cloudy.3 mph83%29.83 "Hg10 mi
5:00 AM66 °FMostly cloudy.6 mph78%29.84 "Hg12 mi
4:00 AM66 °FScattered showers. Overcast.6 mph78%29.86 "Hg8 mi
3:00 AM66 °FOvercast.6 mph78%29.87 "Hg15 mi
2:00 AM66 °FMostly cloudy.7 mph78%29.90 "Hg15 mi
1:00 AM66 °FOvercast.7 mph73%29.93 "Hg14 mi
12:00 AM64 °FMostly cloudy.6 mph83%29.95 "Hg15 mi
11:00 PM
Sat, Jun 25
64 °FMostly cloudy.2 mph88%29.96 "Hg15 mi
10:00 PM64 °FPartly sunny.3 mph94%29.94 "Hg15 mi
9:00 PM68 °FBroken clouds.5 mph88%29.94 "Hg15 mi
8:00 PM70 °FScattered clouds.5 mph83%29.94 "Hg15 mi
7:00 PM68 °FBroken clouds.7 mph83%29.95 "Hg15 mi
6:00 PM64 °FSprinkles. Partly sunny.7 mph94%29.99 "Hg12 mi
5:00 PM66 °FSprinkles. Cloudy.12 mph88%30.16 "Hg10 mi
4:00 PM81 °FCloudy.8 mph48%30.08 "Hg15 mi
3:00 PM81 °FOvercast.7 mph42%30.06 "Hg15 mi
Weather by CustomWeather, © 2016

See weather overviewHow to use our weather pages